This is the latest recevied weather packets stored in our database for station/object SP1BMW-13. If no packets are shown the sender has not sent any weather packets the latest 10 day(s).
| Time | Temp. | Humidity | Pressure | Rain* | Wind** | Luminosity | Snow |
|---|---|---|---|---|---|---|---|
| 1787756354 | 23.89° C | 42% | 1020.6 hPa | 0 mm | 0.89 m/s, 350° | 268 W/m² | - |
| 1787756294 | 23.89° C | 42% | 1020.5 hPa | 0 mm | 0.89 m/s, 45° | 377 W/m² | - |
| 1787756234 | 23.89° C | 44% | 1020.6 hPa | 0 mm | 0.89 m/s, 13° | 394 W/m² | - |
| 1787756174 | 23.89° C | 44% | 1020.6 hPa | 0 mm | 0.45 m/s, 39° | 393 W/m² | - |
| 1787756114 | 23.89° C | 44% | 1020.5 hPa | 0 mm | 0.89 m/s, 41° | 211 W/m² | - |
| 1787756054 | 23.89° C | 44% | 1020.7 hPa | 0 mm | 0.45 m/s, 57° | 310 W/m² | - |
| 1787755994 | 23.89° C | 44% | 1020.7 hPa | 0 mm | 0.89 m/s, 41° | 402 W/m² | - |
| 1787755934 | 23.89° C | 44% | 1020.6 hPa | 0 mm | 0.89 m/s, 93° | 363 W/m² | - |
| 1787755874 | 23.89° C | 43% | 1020.7 hPa | 0 mm | 0.89 m/s, 95° | 248 W/m² | - |
| 1787755814 | 24.44° C | 42% | 1020.6 hPa | 0 mm | 1.34 m/s, 25° | 120 W/m² | - |
| 1787755754 | 24.44° C | 42% | 1020.5 hPa | 0 mm | 1.79 m/s, 47° | 105 W/m² | - |
| 1787755694 | 25° C | 42% | 1020.7 hPa | 0 mm | 0.89 m/s, 31° | 101 W/m² | - |
| 1787755634 | 25° C | 41% | 1020.7 hPa | 0 mm | 0.89 m/s, 50° | 97 W/m² | - |
| 1787755574 | 25° C | 42% | 1020.6 hPa | 0 mm | 0.45 m/s, 48° | 97 W/m² | - |
| 1787755514 | 25° C | 43% | 1020.7 hPa | 0 mm | 0.89 m/s, 99° | 101 W/m² | - |
| 1787755454 | 25.56° C | 40% | 1020.8 hPa | 0 mm | 1.79 m/s, 28° | 377 W/m² | - |
| 1787755394 | 25.56° C | 40% | 1020.5 hPa | 0 mm | 0.89 m/s, 55° | 399 W/m² | - |
| 1787755334 | 25.56° C | 41% | 1020.7 hPa | 0 mm | 1.34 m/s, 42° | 406 W/m² | - |
| 1787755274 | 25.56° C | 40% | 1020.7 hPa | 0 mm | 0 m/s | 414 W/m² | - |
| 1787755214 | 25° C | 40% | 1020.7 hPa | 0 mm | 0.89 m/s, 50° | 434 W/m² | - |
| 1787755154 | 25° C | 42% | 1020.7 hPa | 0 mm | 0.89 m/s, 2° | 455 W/m² | - |
| 1787755094 | 25° C | 41% | 1020.6 hPa | 0 mm | 0.89 m/s, 19° | 466 W/m² | - |
| 1787755034 | 25° C | 43% | 1020.7 hPa | 0 mm | 0.45 m/s, 127° | 473 W/m² | - |
| 1787754974 | 25° C | 41% | 1020.8 hPa | 0 mm | 0.45 m/s, 22° | 478 W/m² | - |
| 1787754914 | 25.56° C | 40% | 1020.4 hPa | 0 mm | 0.45 m/s, 70° | 479 W/m² | - |
* Rain latest hour (hover to see other rain measurements)
** Current wind speed in m/s (hover to see current wind gust speed)